Weather History for Lamar, CO

Change the Weather History Date:

Monday, January 6, 2014

  Actual Average Record
Temperature  
Mean Temperature -1 °F 28 °F  
Max Temperature 15 °F 44 °F 70 °F (2006)
Min Temperature -18 °F 12 °F -18 °F (2014)
Degree Days  
Heating Degree Days 66 37  
Month to date heating degree days 258 222  
Since 1 July heating degree days 2433 2535  
Cooling Degree Days 0 0  
Month to date cooling degree days 0 0  
Year to date cooling degree days 0 0  
Moisture  
Dew Point -8 °F    
Average Humidity 78    
Maximum Humidity 89    
Minimum Humidity 66    
Precipitation  
Precipitation T in 0.01 in 0.30 in (1940)
Month to date precipitation 0.04 0.04  
Year to date precipitation 0.04 0.04  
Sea Level Pressure  
Sea Level Pressure 30.52 in    
Wind  
Wind Speed 7 mph (SW)    
Max Wind Speed 14 mph    
Max Gust Speed 16 mph    
Visibility 9 miles    
Events      
T = Trace of Precipitation, MM = Missing Value Source: NWS Daily Summary

Daily Weather History Graph

Daily Weather History Graph

Search for Another Location

Airport:

Trip Planner

Search our weather history database for the weather conditions in past years. The results will help you decide how hot, cold, wet, or windy it might be!

Date:

Astronomy

Jan. 06, 2014 Rise Set
Actual Time 7:07 AM MST 4:46 PM MST
Civil Twilight 6:38 AM MST 5:15 PM MST
Nautical Twilight 6:05 AM MST 5:48 PM MST
Astronomical Twilight 5:33 AM MST 6:20 PM MST
Moon 10:30 AM MST (1/6) 11:15 PM MST (1/6)
Length of Visible Light 10h 37m
Length of Day
9h 38m
Waxing Crescent, 35% of the Moon is Illuminated
Jan 6
Waxing Crescent
Jan 7
First Quarter
Jan 15
Full
Jan 23
Last Quarter
Jan 30
New

Hourly Weather History & Observations

Time (MST) Temp. Windchill Dew Point Humidity Pressure Visibility Wind Dir Wind Speed Gust Speed Precip Events Conditions
12:53 AM -11.0 °F -27.6 °F -15.0 °F 83% 30.63 in 10.0 mi SSW 8.1 mph - N/A   Clear
1:53 AM -11.0 °F -28.8 °F -15.0 °F 83% 30.63 in 10.0 mi SSW 9.2 mph - N/A   Clear
2:53 AM -15.0 °F -31.0 °F -18.9 °F 82% 30.63 in 10.0 mi SSW 6.9 mph - N/A   Clear
3:53 AM -16.1 °F -28.6 °F -18.0 °F 91% 30.63 in 10.0 mi WSW 4.6 mph - N/A   Clear
4:53 AM -13.0 °F -27.0 °F -17.0 °F 82% 30.61 in 10.0 mi SW 5.8 mph - N/A   Clear
5:53 AM -15.0 °F -29.3 °F -20.0 °F 78% 30.62 in 10.0 mi West 5.8 mph - N/A   Clear
6:24 AM -9.9 °F -26.3 °F -15.0 °F 78% 30.37 in 10.0 mi SW 8.1 mph - N/A   Scattered Clouds
6:53 AM -11.0 °F - -16.1 °F 78% 30.64 in 10.0 mi Calm Calm - N/A   Partly Cloudy
7:10 AM -14.1 °F -26.3 °F -18.9 °F 79% 30.39 in 1.8 mi ENE 4.6 mph - N/A   Haze
7:13 AM -14.1 °F -23.9 °F -18.9 °F 79% 30.39 in 1.0 mi NE 3.5 mph - N/A   Haze
7:21 AM -13.0 °F - -18.0 °F 78% 30.40 in 1.5 mi Calm Calm - N/A   Haze
7:24 AM -13.0 °F - -18.0 °F 78% 30.40 in 4.0 mi Calm Calm - N/A   Haze
7:53 AM -11.0 °F -26.2 °F -16.1 °F 78% 30.66 in 9.0 mi WSW 6.9 mph - N/A   Clear
8:53 AM -2.9 °F -15.0 °F -7.1 °F 82% 30.66 in 10.0 mi SW 5.8 mph - N/A   Clear
9:53 AM 3.0 °F -4.4 °F -2.0 °F 80% 30.63 in 10.0 mi SW 3.5 mph - N/A   Clear
10:53 AM 8.1 °F - 1.0 °F 73% 30.59 in 10.0 mi North - - N/A   Clear
11:53 AM 10.9 °F -2.6 °F 3.0 °F 70% 30.56 in 10.0 mi WSW 10.4 mph - N/A   Clear
12:53 PM 12.9 °F -1.6 °F 3.0 °F 65% 30.54 in 10.0 mi WSW 12.7 mph - N/A   Clear
1:53 PM 12.9 °F -0.2 °F 3.0 °F 65% 30.52 in 10.0 mi WSW 10.4 mph - N/A   Clear
2:53 PM 14.0 °F 3.9 °F 5.0 °F 67% 30.51 in 10.0 mi SW 6.9 mph - N/A   Clear
3:53 PM 12.9 °F 6.9 °F 3.9 °F 67% 30.51 in 10.0 mi WSW 3.5 mph - N/A   Clear
4:53 PM 10.0 °F - 1.9 °F 70% 30.49 in 10.0 mi Calm Calm - N/A   Clear
5:53 PM 3.0 °F -6.4 °F -2.0 °F 80% 30.51 in 10.0 mi SSW 4.6 mph - 0.00 in   Clear
6:53 PM 1.9 °F -9.2 °F -2.9 °F 80% 30.49 in 10.0 mi SSW 5.8 mph - 0.00 in   Clear
7:53 PM -2.0 °F -16.6 °F -7.1 °F 79% 30.49 in 10.0 mi SSW 8.1 mph - 0.00 in   Clear
8:53 PM -2.9 °F -15.0 °F -8.0 °F 79% 30.47 in 10.0 mi SSW 5.8 mph - N/A   Clear
9:53 PM -0.0 °F -16.3 °F -5.1 °F 79% 30.41 in 10.0 mi SSW 10.4 mph - N/A   Clear
10:53 PM 1.9 °F -9.2 °F -4.0 °F 76% 30.38 in 9.0 mi SW 5.8 mph - N/A   Clear
11:53 PM 1.0 °F -14.0 °F -4.0 °F 79% 30.34 in 9.0 mi West 9.2 mph - N/A   Clear